[Iaude] MPEC X01: 2016 WT9 [a=1.37,e=0.34,i=32.8,H=19.7]

mpec at si.edu mpec at si.edu
Wed Nov 30 19:14:32 EST 2016


M.P.E.C. 2016-X01                                Issued 2016 Dec. 1, 00:09 UT
 
     The Minor Planet Electronic Circulars contain information on unusual
         minor planets and routine data on comets.  They are published
    on behalf of Division F of the International Astronomical Union by the
          Minor Planet Center, Smithsonian Astrophysical Observatory,
                          Cambridge, MA 02138, U.S.A.

             Prepared using the Tamkin Foundation Computer Network

                              MPC at CFA.HARVARD.EDU
            URL http://www.minorplanetcenter.net/    ISSN 1523-6714


                                   2016 WT9
 
Observations:
     K16W09T* C2016 11 24.23508 02 46 51.57 +30 28 42.0          21.4 VqEX001G96
     K16W09T  C2016 11 24.24334 02 46 50.71 +30 28 25.3          21.4 VqEX001G96
     K16W09T  C2016 11 24.25036 02 46 49.91 +30 28 11.4          21.9 VqEX001G96
     K16W09T  C2016 11 24.25465 02 46 49.43 +30 28 02.9          21.6 VqEX001G96
     K16W09T  C2016 11 24.32840 02 46 41.30 +30 25 35.1                qEX001G96
     K16W09T  C2016 11 24.33130 02 46 40.98 +30 25 29.1          21.5 VqEX001G96
     K16W09T  C2016 11 24.33420 02 46 40.69 +30 25 23.2          21.8 VqEX001G96
     K16W09T  C2016 11 24.33779 02 46 40.30 +30 25 16.6          21.4 VqEX001G96
     K16W09T  C2016 11 25.20353 02 45 10.03 +29 56 29.1          21.4 VqEX001G96
     K16W09T  C2016 11 25.20669 02 45 09.66 +29 56 22.7          21.7 VqEX001G96
     K16W09T  C2016 11 25.21083 02 45 09.25 +29 56 14.6          22.0 VqEX001G96
     K16W09T  C2016 11 25.21411 02 45 08.90 +29 56 07.4          21.3 VqEX001G96
     K16W09T HC2016 11 25.29431 02 45 00.33 +29 53 27.6          22.4 VoEX001691
     K16W09T HC2016 11 25.30546 02 44 59.13 +29 53 05.2          21.3 VoEX001691
     K16W09T HC2016 11 25.31657 02 44 57.85 +29 52 41.5                oEX001691
     K16W09T KC2016 11 29.80741 02 37 50.47 +27 24 06.1          21.8 RoEX001K51
     K16W09T KC2016 11 29.80904 02 37 50.30 +27 24 03.3          21.6 RoEX001K51
     K16W09T KC2016 11 29.81066 02 37 50.14 +27 23 59.3          21.6 RoEX001K51
     K16W09T  C2016 11 29.86340 02 37 45.37 +27 22 15.8          20.7 VSEX001033
     K16W09T  C2016 11 29.87064 02 37 44.71 +27 22 01.3          20.5 VSEX001033
     K16W09T  C2016 11 29.87786 02 37 44.04 +27 21 47.1          20.5 VSEX001033
     K16W09T  C2016 11 30.22412 02 37 14.03 +27 10 30.6          20.9 VqEX001G96
     K16W09T  C2016 11 30.22748 02 37 13.81 +27 10 23.0          21.4 VqEX001G96
     K16W09T  C2016 11 30.23375 02 37 13.24 +27 10 11.8          21.6 VqEX001G96
     K16W09T  C2016 11 30.23711 02 37 12.91 +27 10 05.0          21.5 VqEX001G96
 
Observer details:
033 Karl Schwarzschild Observatory, Tautenburg.  Observers B. Stecklum,
    C. Hoegner.  Measurer B. Stecklum.  1.34-m f/3 Schmidt + CCD.
691 Steward Observatory, Kitt Peak.  Observer J. V. Scotti.  0.9-m f/3
    reflector + CCD.
G96 Mt. Lemmon Survey.  Observers G. J. Leonard, R. A. Kowalski.  Measurers
    E. J. Christensen, D. C. Fuls, A. R. Gibbs, A. D. Grauer, J. A. Johnson,
    R. A. Kowalski, S. M. Larson, G. J. Leonard, R. G. Matheny, R. L. Seaman,
    F. C. Shelly.  1.5-m reflector + 10K CCD.
K51 Osservatorio del Celado, Castello Tesino.  Observers G. Favero, R. Furgoni.
    Measurer R. Furgoni.  0.80-m f/4 reflector + CCD.
 
Orbital elements:
2016 WT9                                                 Earth MOID = 0.1096 AU
Epoch 2017 Feb. 16.0 TT = JDT 2457800.5                 MPC
M 225.14492              (2000.0)            P               Q
n   0.61627098     Peri.  351.37638     -0.51730997     +0.69794592
a   1.3675868      Node   245.99543     -0.74929488     -0.64896653
e   0.3414515      Incl.   32.82849     -0.41345807     +0.30284307
P   1.60           H   19.7           G   0.15           U   8
Residuals in seconds of arc
161124 G96  0.5-  0.2+    161125 G96  0.4-  0.4+    161129 033  0.1+  0.5+
161124 G96  0.2+  0.1-    161125 G96  0.0   0.5+    161129 033  0.0   0.2+
161124 G96  0.0   0.0     161125 G96  0.1+  0.1-    161129 033  0.3-  0.2+
161124 G96  0.1-  0.1+    161125 691  0.4+  0.2+    161130 G96  0.8-  0.1-
161124 G96  0.0   0.0     161125 691  0.3+  0.2+    161130 G96  0.3+  1.1-
161124 G96  0.0   0.2-    161125 691  0.9-  1.2-    161130 G96  0.2+  0.0
161124 G96  0.4+  0.2-    161129 K51  0.5+  0.3+    161130 G96  0.1-  0.2-
161124 G96  0.4+  0.4+    161129 K51  0.2+  0.7+
161125 G96  0.0   0.5+    161129 K51  0.0   0.1-

Ephemeris:
2016 WT9                 a,e,i = 1.37, 0.34, 33                  q = 0.9006
Date    TT    R. A. (2000) Decl.     Delta      r     Elong.  Phase     V
2016 11 01    03 37 20.4 +41 39 57   0.8950  1.8174   148.6    16.5    21.6
...
2016 11 16    03 03 08.1 +34 56 54   0.8606  1.8293   163.0     9.1    21.3
...
2016 11 24    02 47 16.8 +30 36 33   0.8711  1.8328   160.9    10.1    21.4
...
2016 11 30    02 37 33.5 +27 17 53   0.8924  1.8342   155.0    13.1    21.5
2016 12 01    02 36 08.6 +26 45 17   0.8970  1.8343   153.8    13.7    21.6
2016 12 02    02 34 47.3 +26 12 57   0.9020  1.8344   152.6    14.3    21.6
...
2016 12 08    02 27 56.6 +23 06 21   0.9374  1.8344   145.2    17.9    21.8
...
2016 12 16    02 22 07.9 +19 24 15   0.9984  1.8326   135.2    22.3    22.1
...
2016 12 31    02 20 09.1 +14 06 36   1.1435  1.8242   117.9    28.4    22.6

                       (Last issue was M.P.E.C. 2016-W127)

A. U. Tomatic                (C) Copyright 2016 MPC           M.P.E.C. 2016-X01




More information about the Iaude mailing list